GSAT0215 (PRN E21)

Last updated on June 16, 2019, 3:38 a.m. UTC

1 43055U 17079A   19166.33498241 -.00000068  00000-0  00000+0 0  9992
2 43055  56.5619 291.8859 0001935 206.9434 153.0238  1.70474346  9365
UTC
Height (km)
Latitude
Longitude
Inclination
Orbital Period
UTC large
Height (km)
Speed (km/s)
/
Latitude / Longitude
Inclination (degrees)
Orbital Period (minutes)
Azimuth
Elevation
Range (km)
Doppler Factor
iOS Compass Heading
iOS Angle

Next 30 passes for location: Hong Kong

Rise time Rise Azimuth (degrees) Set time Set Azimuth (degrees) Duration Max altitude (degrees)

No matching passes for this satellites